Theta_e
341 339 340 341 342 343 345 346 347 347 347 348 347 349 347 349 350 348 350 351 353 349 349 349 347 347 347 346 346 346 348 351 351 351 352 355 355 355 355 357 357 357 357 355 352 352 352 349 348 349 350 353 353 352 352 350 349 348 349 352 349 347 347 350 349 349 345 344 344 344 345 349 349 350 348 349 351 353 354 354 354 353 352 353 355
342 342 341 341 340 342 343 345 345 342 344 344 343 346 348 350 348 348 350 349 350 351 352 349 348 349 346 345 348 349 349 351 351 352 353 356 357 357 355 353 353 354 354 355 353 349 349 350 348 347 349 350 351 353 352 355 353 350 349 349 353 349 347 349 348 348 341 339 338 340 344 346 347 349 348 348 350 351 352 353 353 353 352 353 355
340 343 344 343 341 342 343 345 344 343 343 342 343 344 346 349 349 349 350 350 350 351 350 346 349 351 350 348 349 349 350 351 351 350 353 353 355 356 355 355 351 349 350 351 351 349 348 348 347 348 347 348 347 350 351 352 353 352 351 348 348 349 349 350 348 347 342 342 343 338 335 335 343 344 347 348 349 350 351 351 352 353 353 354 354
339 341 343 345 344 344 346 345 346 343 342 344 345 343 348 348 347 348 350 350 347 349 353 353 355 352 351 351 351 348 348 350 349 352 352 351 351 353 355 356 352 350 351 353 354 352 349 348 348 348 348 348 348 348 351 351 352 352 352 351 348 344 346 346 349 347 345 344 337 335 335 334 332 339 339 346 349 350 349 349 351 351 353 354 354
339 341 342 344 345 346 347 349 348 347 348 348 349 348 350 348 347 348 350 349 348 351 350 351 349 346 346 348 348 346 346 346 347 348 349 352 353 352 353 355 356 356 357 357 356 353 350 350 349 347 347 348 348 348 351 351 352 353 353 351 349 346 343 345 347 348 345 348 343 337 335 333 333 337 340 343 347 348 349 350 351 352 352 353 353
340 340 341 343 344 345 346 347 347 347 347 349 351 351 349 348 347 347 347 348 348 349 349 348 347 345 343 345 344 343 342 344 344 345 347 348 348 352 354 354 355 356 356 357 356 356 350 350 348 348 350 350 351 351 352 352 352 352 353 352 350 349 348 344 343 348 348 348 346 345 341 335 336 338 338 336 346 351 351 351 352 352 353 353 354
337 340 341 342 344 343 343 344 346 346 347 350 350 350 350 349 348 348 348 349 349 348 349 349 345 346 346 345 343 342 340 343 346 348 348 349 350 351 352 354 354 355 355 356 357 356 352 351 350 351 349 350 353 353 352 352 353 353 355 353 351 351 348 343 343 343 346 346 346 345 345 344 347 339 337 337 335 342 348 350 352 354 354 353 353
335 338 340 342 343 343 342 343 344 346 346 349 349 348 346 347 348 349 349 349 349 348 349 345 343 342 341 342 345 344 344 344 346 348 351 352 352 351 352 353 354 355 355 355 356 356 356 354 355 354 352 352 353 352 353 353 354 355 354 352 350 350 347 344 343 343 341 342 345 344 344 345 344 344 344 339 336 333 338 349 353 353 354 354 354
337 338 338 341 342 342 342 343 345 347 347 347 348 348 348 349 351 351 351 352 348 350 349 349 349 345 345 345 346 348 348 349 350 351 349 348 347 348 349 350 352 353 354 354 354 354 355 355 351 352 350 353 353 353 354 355 354 353 349 348 347 346 345 346 346 344 344 343 344 344 344 343 343 343 343 345 338 335 336 338 341 350 352 353 354
339 340 339 341 342 342 343 344 346 346 347 350 347 348 348 348 352 347 349 350 351 351 352 349 351 352 347 346 346 344 345 345 344 344 344 344 344 346 347 348 349 350 353 354 354 354 354 354 353 353 354 354 354 354 354 354 353 352 351 349 348 346 348 348 346 347 347 346 346 345 342 342 341 341 341 341 341 341 336 338 341 340 340 347 355
338 339 340 341 342 343 344 344 344 343 343 343 344 344 344 344 343 341 339 339 346 348 350 351 351 352 350 348 346 344 343 343 342 342 340 341 341 342 344 345 346 347 349 351 353 355 355 355 354 354 354 355 356 353 352 351 352 353 353 352 352 350 349 350 350 350 349 347 346 347 344 343 342 340 341 342 341 339 338 338 340 341 340 341 347
337 338 338 337 338 340 342 341 341 340 340 341 341 340 340 338 337 337 338 339 340 345 348 347 349 349 350 349 347 345 344 343 340 339 338 339 339 340 342 342 342 344 345 346 347 349 352 353 354 354 354 354 353 354 354 354 349 351 353 352 351 353 352 352 350 349 349 347 347 347 347 346 346 344 345 347 344 343 341 339 340 343 343 344 347
335 336 335 335 337 338 339 338 338 338 339 339 339 338 337 336 335 336 336 338 337 337 341 340 343 346 347 347 347 346 344 342 339 338 337 338 339 340 340 340 340 340 341 342 344 345 348 349 351 352 353 354 354 354 354 353 347 350 346 349 352 349 350 350 349 349 349 348 347 348 346 347 346 348 347 346 346 347 345 339 340 340 338 340 344
335 335 334 334 335 337 338 337 338 337 336 337 338 339 338 336 334 335 335 335 338 336 336 336 336 339 342 341 338 341 340 338 334 337 338 338 339 340 340 340 340 340 341 341 343 346 347 347 350 352 354 354 354 354 354 355 352 348 349 346 344 345 345 345 345 344 346 347 350 347 346 346 347 348 347 346 344 342 340 338 339 339 339 339 344
332 333 333 333 334 336 336 336 336 335 335 335 336 335 335 335 335 336 334 334 333 335 335 334 336 337 338 339 340 341 340 338 337 341 340 339 338 339 339 339 339 340 341 343 346 344 345 346 350 353 353 353 354 353 355 355 354 350 349 347 348 347 346 347 347 346 344 343 344 346 346 346 347 348 348 347 347 344 343 342 339 337 338 339 339
330 331 331 331 333 334 334 334 334 334 334 334 335 334 334 333 333 333 333 334 335 338 334 333 335 337 335 337 338 344 348 342 342 342 339 339 339 339 339 339 340 341 341 343 343 344 344 345 348 349 350 351 352 352 352 353 354 353 350 349 347 347 344 344 345 345 346 345 344 346 346 347 348 348 348 348 349 348 345 345 344 342 337 335 337
328 329 329 329 330 332 333 333 332 333 333 334 335 334 333 332 332 332 333 334 334 338 335 334 334 335 335 336 334 335 335 336 337 337 337 338 340 339 339 340 341 341 341 345 345 345 344 346 346 344 346 347 349 350 350 351 351 352 351 351 350 349 347 345 346 345 346 347 346 345 345 348 349 350 350 350 349 348 345 345 345 342 341 338 335
329 329 329 330 331 332 332 332 332 332 333 333 336 335 333 332 331 331 334 333 332 337 335 335 339 336 337 337 336 337 336 336 336 337 338 338 338 339 340 339 339 340 343 345 345 342 342 346 342 343 343 345 346 348 349 350 351 350 351 352 352 352 350 347 347 347 346 346 347 346 348 348 350 349 351 349 348 347 344 342 344 344 344 340 339
328 328 328 329 329 331 331 331 332 332 335 333 335 335 333 332 332 330 332 332 332 333 337 338 337 336 337 340 337 337 336 336 337 340 338 337 339 339 339 339 339 341 345 341 340 341 341 341 342 342 343 344 345 346 348 349 350 350 351 352 353 353 349 347 347 348 348 347 346 346 348 347 348 346 349 347 343 344 344 347 345 344 344 343 342
327 328 328 329 329 330 331 331 330 330 331 331 332 334 334 333 337 334 336 333 336 335 342 335 336 338 339 338 337 337 340 338 339 338 337 338 338 338 339 339 338 343 341 340 340 340 341 340 342 342 343 344 344 346 346 346 347 349 350 350 352 352 350 348 349 350 349 347 345 344 345 347 349 344 344 346 345 342 343 344 345 344 344 344 342
327 328 328 328 329 329 330 330 331 330 333 331 331 332 333 332 333 337 333 334 335 337 336 333 337 335 342 337 337 335 335 336 338 337 340 337 337 343 340 338 342 338 339 339 339 340 340 341 341 343 343 343 342 342 343 344 344 346 347 348 349 349 348 348 349 350 351 349 345 344 346 349 350 346 346 347 346 346 347 347 345 343 342 343 341
327 328 328 328 328 328 328 329 330 329 329 329 330 331 331 331 332 335 332 334 334 334 335 334 336 335 334 335 334 334 335 336 337 335 339 337 336 336 336 340 338 338 339 339 339 339 341 340 341 341 342 342 342 342 342 342 343 344 344 346 347 347 347 347 348 347 348 349 349 348 349 350 351 350 349 349 349 349 349 347 345 345 343 342 343
327 328 328 328 328 328 328 328 327 327 328 329 330 330 330 329 330 332 333 333 333 334 334 334 335 335 334 334 334 334 335 335 335 335 334 334 335 335 338 338 337 337 339 340 340 340 339 340 340 341 340 340 341 342 342 342 342 342 342 343 345 346 346 346 346 347 347 348 347 347 348 349 349 348 349 349 350 349 349 348 347 347 346 345 345
328 328 328 328 328 327 326 327 325 325 326 328 329 329 328 328 331 331 332 333 333 333 334 335 334 334 333 333 333 333 334 334 334 334 334 334 334 334 337 337 338 338 338 339 340 339 340 339 339 339 340 340 341 341 341 342 342 342 342 342 344 344 345 346 346 346 347 347 346 347 346 347 348 347 348 348 348 349 348 348 348 348 348 347 347
326 326 326 326 326 325 325 325 324 324 325 327 327 327 327 327 330 331 332 333 334 334 334 334 334 334 333 333 333 333 333 333 334 333 333 334 334 335 337 340 338 337 338 337 339 340 339 338 338 338 339 339 340 341 341 341 341 342 342 342 343 343 344 344 345 346 348 347 346 346 346 347 347 346 346 346 347 347 348 348 347 347 348 348 348
325 325 325 325 326 326 325 325 324 323 325 326 327 327 327 327 330 332 331 331 333 334 334 334 333 333 333 332 333 333 333 333 333 333 333 334 334 335 336 336 339 337 336 336 337 337 338 338 338 338 339 340 340 340 340 340 341 342 342 342 343 343 344 344 345 345 345 346 346 347 347 348 347 346 346 347 348 347 348 347 346 346 347 348 347
324 325 325 325 324 325 325 324 324 324 325 327 327 327 327 328 330 332 332 333 333 334 333 333 332 333 332 332 332 332 333 332 333 333 333 334 335 335 335 335 337 337 336 335 336 336 337 337 338 338 339 339 339 340 340 340 340 341 341 341 342 342 343 344 344 345 346 346 346 347 348 348 347 347 346 346 347 347 346 346 347 347 347 346 346
324 324 323 324 324 324 324 324 324 324 325 327 327 327 327 328 329 331 332 334 334 334 333 333 332 332 332 332 332 332 332 332 332 333 334 334 334 334 334 335 337 335 335 335 335 335 335 337 337 338 339 340 340 339 339 339 340 340 341 342 342 342 343 343 344 345 346 345 346 347 347 348 348 348 348 348 348 346 347 345 346 346 346 345 345
322 323 323 324 323 324 324 324 325 325 325 327 327 328 328 330 331 332 334 334 335 333 332 332 331 331 331 331 331 333 333 334 335 333 333 333 333 333 334 334 335 335 337 336 335 335 334 335 336 337 338 338 337 337 338 339 340 341 342 342 342 343 343 343 343 344 345 346 346 346 346 347 349 350 351 351 350 349 346 345 347 347 347 346 345
322 323 323 324 324 325 324 325 325 325 326 326 327 327 328 329 330 332 333 334 334 332 331 331 330 331 331 331 331 333 334 332 332 332 332 332 333 333 334 333 333 333 333 335 334 334 335 334 334 336 336 336 337 337 340 343 343 342 341 341 342 342 342 342 342 342 343 344 345 345 346 349 348 348 348 349 348 349 349 347 345 343 344 343 343
323 323 323 324 324 325 325 325 325 325 326 326 327 327 329 330 331 332 332 333 333 332 330 330 331 331 330 330 331 332 332 331 332 332 332 332 332 332 332 331 332 332 332 332 334 332 333 334 334 334 334 335 336 337 340 340 340 341 341 341 340 340 341 340 340 340 340 342 343 345 346 346 348 349 350 350 349 349 348 349 347 349 348 346 343
322 323 323 323 324 324 324 324 325 325 326 326 327 328 329 330 331 331 332 333 332 331 331 330 331 330 330 331 331 331 331 331 331 331 332 331 331 331 330 331 331 330 331 333 331 331 332 332 333 333 333 334 335 338 336 336 337 337 339 341 340 340 339 339 339 339 340 341 341 343 344 346 346 347 347 347 348 349 348 348 349 348 348 348 347
323 323 324 324 324 325 325 325 325 325 326 327 328 329 329 331 331 332 333 333 332 332 331 330 330 329 331 331 331 331 331 331 331 331 331 331 330 330 330 330 329 331 332 330 330 330 330 331 332 331 332 333 335 336 335 335 335 335 336 339 339 338 337 338 338 338 339 339 340 341 342 344 345 346 349 349 348 348 350 349 349 346 347 348 341
324 324 325 325 325 326 326 326 326 327 328 329 331 330 331 332 333 333 332 332 332 331 330 330 330 329 330 330 330 330 330 331 331 330 330 329 329 329 330 330 331 331 329 328 329 329 330 330 331 332 333 333 334 336 333 332 331 331 333 335 337 336 336 336 337 337 338 338 339 339 339 341 343 345 346 346 346 346 346 346 346 346 346 346 347
323 324 324 325 325 326 326 326 327 328 329 329 330 332 332 331 332 332 332 331 330 330 328 328 329 330 330 330 330 330 330 331 331 329 329 329 329 329 329 330 330 329 329 329 329 329 329 332 331 331 331 332 333 334 331 330 328 327 330 335 336 336 336 336 337 337 337 338 339 339 340 340 341 343 344 345 344 343 344 344 344 343 344 345 345
324 324 324 324 325 325 326 327 331 331 329 329 330 331 331 331 332 331 331 330 328 328 329 328 329 330 330 330 330 330 329 329 329 329 328 328 328 328 328 329 331 329 329 329 329 329 329 329 330 330 330 330 332 329 327 327 325 325 330 335 335 334 334 335 335 337 337 338 339 339 339 339 340 341 344 344 345 346 343 339 339 341 342 344 345
327 326 326 327 327 327 328 331 330 329 329 329 330 331 331 330 330 330 329 327 327 328 329 329 332 330 331 330 330 329 329 330 329 328 328 328 328 328 328 330 328 328 327 327 328 328 329 329 329 331 330 330 330 329 326 325 324 324 331 334 334 334 333 333 334 336 337 338 338 339 339 339 339 340 340 334 336 343 339 338 338 339 340 341 342
326 326 327 327 328 329 333 329 328 328 329 329 331 331 330 329 329 328 329 328 327 328 329 330 329 330 330 330 329 329 329 329 328 328 328 328 328 328 327 329 328 327 327 327 328 328 329 330 330 329 329 329 331 332 327 324 323 324 330 333 333 332 332 332 334 335 336 336 337 339 342 341 341 341 338 332 332 338 337 337 336 337 337 338 340
327 327 326 326 327 329 331 329 328 328 328 329 330 329 329 329 332 328 327 328 327 327 327 328 329 329 329 329 329 329 329 328 328 328 328 327 327 327 329 329 328 327 327 328 329 328 327 328 328 328 331 331 331 331 325 323 322 323 329 333 332 331 330 331 332 333 335 335 336 338 340 341 341 341 330 328 329 338 337 336 336 336 335 336 338
327 327 326 327 332 330 327 326 326 327 327 329 328 328 331 329 330 327 327 328 328 328 329 328 328 328 329 330 329 331 330 329 327 327 327 326 328 328 327 327 327 326 326 326 326 326 325 325 327 328 328 329 328 329 330 323 321 321 323 332 333 330 329 329 330 331 331 334 335 336 338 335 329 327 324 323 323 325 333 336 336 334 334 334 340
325 329 334 328 327 326 325 325 325 328 329 329 329 329 331 332 329 326 327 327 328 327 327 328 328 328 328 328 328 327 327 327 327 327 327 328 327 326 326 325 325 325 324 324 323 324 324 325 326 326 327 327 328 329 330 323 320 320 321 327 331 330 330 329 329 329 330 330 332 334 336 335 326 323 321 320 319 320 326 334 335 335 335 337 340
336 335 330 325 324 325 325 326 326 328 329 328 328 330 329 330 327 325 326 327 327 327 327 327 327 327 327 328 327 327 328 328 328 328 325 324 325 326 325 325 325 324 323 322 323 324 323 323 324 325 326 326 328 331 330 326 322 319 318 320 327 329 330 329 327 327 328 329 331 333 335 334 326 323 321 318 316 318 321 329 331 323 324 326 333
325 326 330 326 325 324 325 326 327 327 327 326 328 330 330 331 326 327 327 327 328 329 328 327 327 328 328 328 327 327 327 327 326 326 324 323 324 324 324 325 323 322 322 321 322 322 322 322 323 324 325 326 327 328 329 329 325 319 317 317 318 323 324 328 325 324 325 327 330 332 334 333 325 320 316 315 315 316 322 326 319 319 320 322 329
325 326 327 330 325 326 326 327 328 329 326 326 328 329 330 328 326 326 326 330 330 328 327 327 329 327 326 326 327 327 325 324 325 325 324 324 324 324 324 323 323 322 321 320 321 322 322 321 321 322 324 325 327 327 328 328 328 321 317 315 315 315 317 323 326 325 326 327 329 330 332 322 317 312 312 314 316 321 324 316 315 317 319 325 329
326 327 330 327 325 325 325 326 325 327 326 326 325 330 333 330 327 329 331 329 328 328 328 327 325 325 325 325 324 324 324 324 324 324 323 325 324 323 322 322 322 322 321 320 321 322 321 321 321 322 323 324 325 326 326 327 327 328 321 318 317 317 317 316 323 327 328 329 325 319 316 315 316 315 315 316 317 320 315 314 314 316 327 329 328
325 326 327 325 324 324 324 326 326 326 326 332 325 328 330 330 329 329 330 327 328 328 328 327 325 324 324 323 323 323 323 324 325 325 325 324 323 322 321 321 322 321 321 321 320 321 321 322 322 322 323 323 325 325 325 326 327 328 328 323 321 321 327 328 329 328 328 324 320 318 316 316 318 320 326 327 327 329 326 324 323 328 331 330 330
323 326 329 324 324 323 325 327 326 326 325 327 327 325 327 328 330 329 328 326 329 328 327 325 322 322 323 323 322 322 325 326 325 324 323 323 323 322 321 322 321 321 321 321 321 321 321 321 321 322 323 324 324 324 324 325 326 326 326 326 326 325 326 326 327 328 328 326 327 328 328 324 323 324 326 329 331 332 333 333 333 333 333 333 333
324 327 324 322 322 323 326 326 326 326 324 325 327 327 327 326 325 326 326 326 327 327 325 322 321 322 322 323 323 326 326 323 323 322 321 321 321 322 321 320 321 321 320 320 321 321 321 321 321 321 321 321 322 323 323 324 325 326 323 321 321 321 320 321 322 323 324 326 327 329 327 330 331 330 329 330 330 331 330 330 331 332 332 333 334
323 324 325 321 321 323 324 325 326 324 323 322 323 324 326 325 326 325 323 325 326 326 324 321 321 321 320 323 324 324 324 323 321 321 321 321 320 320 321 322 324 324 323 321 322 321 323 322 322 321 320 319 320 320 322 320 324 314 314 313 315 316 317 317 319 317 319 319 320 321 323 326 327 327 326 327 328 328 328 329 329 330 331 331 333
322 323 321 324 327 323 324 324 323 322 322 324 325 326 326 326 326 324 324 326 325 324 323 321 321 321 321 322 324 324 323 322 321 320 320 321 323 319 319 322 322 324 321 316 313 319 321 322 320 320 321 319 318 321 317 309 304 303 303 303 305 304 303 308 312 310 312 311 313 315 319 323 325 327 326 326 326 327 326 327 328 329 330 331 332
321 321 321 322 323 328 326 327 326 327 324 325 325 325 325 325 325 323 323 322 321 324 323 320 321 320 322 324 324 323 322 321 320 320 319 319 320 321 311 309 314 320 315 309 305 305 306 308 315 316 318 315 313 309 305 303 302 301 300 300 299 299 299 300 301 305 310 312 313 314 318 321 323 325 324 325 326 327 327 328 328 329 330 331 331
Wind_Speed
6 9 9 8 6 6 6 6 6 6 5 5 4 6 5 5 5 5 4 4 4 5 5 4 4 5 3 5 4 2 3 3 4 5 6 5 6 6 5 4 4 2 1 3 3 3 4 5 5 3 3 3 5 6 4 5 5 4 3 4 5 5 6 6 6 4 4 4 3 7 7 8 10 10 10 9 9 9 8 8 7 8 9 9 7
5 6 5 8 8 8 6 6 7 8 7 4 4 5 7 6 5 1 2 2 3 4 4 3 2 1 4 3 3 5 6 5 4 3 4 4 4 2 1 2 2 3 2 2 3 3 4 3 2 4 3 4 5 6 6 6 5 4 4 3 4 5 4 5 5 4 2 5 3 3 3 4 8 9 10 9 9 8 8 8 9 10 10 10 6
3 5 6 7 7 9 7 7 6 6 4 5 6 7 9 4 2 3 3 4 2 2 4 3 5 4 2 2 4 3 0 1 2 3 5 4 2 2 4 2 1 4 4 5 6 5 5 4 6 5 6 5 5 7 7 7 6 6 4 4 3 4 4 3 7 7 3 2 1 2 3 4 1 4 7 9 9 8 8 9 9 10 12 10 8
6 6 6 6 8 8 8 8 8 8 8 10 12 12 8 5 4 2 3 3 4 2 3 4 2 3 2 2 1 2 1 1 5 6 2 3 3 2 2 3 5 6 8 6 5 4 5 7 6 6 6 6 6 6 6 7 6 6 7 7 5 4 5 6 6 7 4 3 2 3 2 0 5 1 1 3 7 7 9 9 9 9 10 9 8
6 6 6 7 7 6 7 8 9 9 9 8 8 8 5 8 7 4 3 3 3 2 2 3 3 2 2 2 2 2 2 4 2 2 1 1 2 1 1 1 2 3 4 4 4 4 4 5 5 6 7 6 6 7 6 6 6 7 7 7 7 6 5 4 5 7 7 5 3 2 1 1 3 3 2 2 2 5 8 9 8 8 8 8 9
6 7 8 8 7 7 6 6 6 6 6 5 4 6 7 5 5 3 2 1 1 1 1 2 2 1 2 3 2 1 2 4 4 5 5 4 4 4 2 0 1 2 2 3 4 5 5 5 6 7 6 7 7 7 6 5 6 7 7 6 7 7 6 5 4 6 6 6 7 5 3 2 2 1 2 3 1 4 3 5 7 8 8 8 8
0 1 4 7 7 7 6 6 6 6 4 4 4 5 6 7 8 7 5 4 5 4 3 3 4 4 2 2 2 2 1 2 2 2 3 4 4 4 3 2 1 2 3 2 3 5 4 4 5 5 6 5 4 4 5 6 6 7 5 5 6 5 6 7 7 4 5 7 8 8 8 6 2 2 3 1 4 2 3 4 5 8 9 10 10
3 2 2 4 7 7 7 6 6 6 6 5 5 5 6 6 6 7 5 5 5 6 5 5 4 3 4 3 2 0 0 3 4 4 3 4 5 5 4 4 3 2 3 2 2 3 3 4 3 4 4 4 4 5 5 5 5 4 4 3 2 3 5 6 6 5 7 5 8 10 9 9 7 5 4 5 3 6 7 2 4 5 8 9 11
5 5 4 5 5 6 6 6 5 5 5 5 4 4 4 5 5 5 6 5 7 7 7 6 5 5 2 2 1 2 1 3 3 3 3 3 4 4 4 4 4 3 2 3 2 2 4 3 3 3 5 6 5 5 5 6 7 6 5 5 7 6 6 7 6 6 7 7 5 8 9 9 6 6 5 4 6 6 9 7 6 3 5 8 9
5 6 6 5 5 5 5 5 5 5 4 4 4 4 4 3 4 4 4 3 4 5 4 3 2 2 3 1 1 2 2 3 3 3 3 3 4 5 4 4 4 4 4 3 3 3 5 4 4 5 6 5 5 5 5 6 7 6 6 7 7 8 6 7 8 7 7 7 7 5 6 7 6 6 7 7 7 9 8 5 5 6 6 3 5
5 6 5 4 3 5 6 7 5 4 3 4 4 4 3 4 4 5 3 3 3 3 3 3 2 2 2 2 1 2 3 3 3 4 4 4 5 4 4 4 4 4 3 3 3 4 4 4 4 4 5 5 5 5 5 5 7 6 7 7 7 7 6 7 8 8 7 7 8 7 8 6 6 7 6 6 7 7 8 10 7 6 6 9 5
6 6 5 5 4 4 5 6 5 4 4 4 3 3 4 4 5 4 3 4 3 3 3 2 2 2 1 1 1 2 2 2 1 3 4 4 4 4 4 4 5 5 4 4 5 4 3 3 3 4 4 5 5 5 6 4 5 7 5 5 6 7 8 7 7 8 9 8 8 8 7 6 6 7 5 5 7 6 6 6 6 3 4 6 5
7 6 6 5 6 6 6 5 4 5 5 4 4 4 3 4 4 5 3 2 3 3 5 3 3 2 2 2 1 1 1 1 2 2 3 3 3 4 4 5 5 5 5 5 6 6 4 5 4 2 3 3 5 5 6 6 6 6 3 7 4 5 5 5 5 4 6 8 7 6 7 6 8 6 5 5 5 5 5 7 6 5 6 7 3
7 7 6 6 6 6 6 6 5 4 4 4 3 4 4 3 3 4 2 2 2 4 4 4 4 3 3 3 2 3 2 2 0 1 3 2 2 3 3 3 4 4 5 5 5 5 4 3 3 3 2 3 4 5 5 5 4 4 5 3 5 7 7 7 6 5 7 9 6 7 7 8 8 7 7 6 6 5 6 7 5 4 5 7 3
6 7 7 7 7 7 7 6 6 5 5 4 3 3 3 3 3 3 2 1 2 4 4 5 4 4 4 4 4 3 3 2 1 1 2 2 1 2 3 3 3 4 4 5 5 4 5 4 4 3 3 2 2 3 4 5 4 5 5 5 6 6 6 5 4 6 9 11 10 9 9 9 9 9 7 8 7 7 7 7 6 7 5 4 5
6 7 6 5 6 6 6 6 6 6 5 4 4 3 3 4 3 3 3 2 1 2 4 5 3 3 3 4 4 3 2 2 2 2 2 2 3 3 4 4 3 4 4 4 4 4 4 5 5 4 4 3 3 3 3 3 4 5 5 6 7 5 6 7 6 7 10 11 11 9 9 10 9 9 9 9 8 7 7 7 6 6 8 7 2
6 7 7 6 5 5 6 6 5 5 4 6 6 5 6 5 4 3 2 0 2 3 4 4 4 3 3 3 3 3 2 2 3 4 5 4 3 2 2 3 3 3 3 3 4 4 4 4 4 4 4 4 4 3 3 3 3 4 5 7 7 6 6 8 7 7 8 9 7 10 9 9 9 9 8 8 7 5 5 6 5 6 6 7 6
7 6 6 7 7 8 6 5 7 7 7 6 6 5 5 5 6 5 3 3 2 1 3 4 3 2 2 2 1 1 1 2 2 4 3 4 4 3 3 4 4 4 3 3 3 4 5 4 4 4 4 4 4 3 3 3 3 4 5 7 7 6 5 6 7 8 9 8 7 8 8 9 8 8 6 4 3 1 7 9 8 7 6 7 5
6 6 6 6 7 7 7 7 6 7 7 7 5 4 4 3 4 5 4 4 4 3 2 2 2 2 1 1 1 1 1 1 1 1 1 1 2 3 3 3 4 4 4 4 5 5 4 5 4 5 4 4 4 4 4 4 3 4 4 5 6 6 5 6 6 7 8 8 9 9 8 8 6 7 6 4 8 8 7 6 7 7 8 8 8
7 7 7 8 8 8 8 8 7 6 6 4 4 3 5 4 4 3 1 2 2 4 4 3 2 2 2 2 2 1 1 1 1 1 1 1 2 3 3 4 4 3 4 4 4 4 5 5 5 5 5 4 5 5 4 4 3 3 4 4 5 5 6 7 7 7 7 7 8 8 8 7 5 6 8 7 9 8 8 8 7 7 7 7 7
9 8 8 8 8 7 6 6 6 3 2 3 4 6 6 4 4 4 4 4 5 4 4 3 2 3 2 1 1 2 2 2 1 1 2 3 3 2 3 3 3 4 4 4 4 5 5 4 5 5 5 5 5 5 4 4 4 4 3 4 5 6 7 7 7 7 8 7 7 8 7 7 7 7 7 7 8 8 8 7 8 8 8 7 7
9 9 8 8 7 6 5 3 2 3 3 4 4 4 5 5 5 5 4 5 5 4 4 3 3 4 4 3 3 2 2 2 2 3 3 3 3 4 3 3 3 5 3 4 5 4 4 5 4 5 5 5 5 5 5 3 4 4 5 3 4 5 6 7 6 8 8 6 7 8 9 9 7 8 8 8 8 8 7 7 6 7 8 9 10
10 10 9 8 8 7 6 6 6 5 5 4 5 5 6 5 5 5 6 5 5 5 5 4 4 5 5 4 2 3 2 3 3 3 4 4 4 4 3 3 4 4 4 4 5 5 5 5 5 5 5 5 5 5 5 4 4 4 5 5 4 5 6 7 7 8 9 8 8 7 7 7 6 7 7 8 8 8 8 8 9 7 7 9 11
6 6 6 6 6 5 5 5 5 4 4 5 6 5 5 5 6 5 6 6 5 5 4 4 4 4 4 3 3 3 3 3 3 4 4 5 4 4 3 3 4 3 4 4 4 5 5 5 5 5 5 5 5 5 5 5 5 5 5 5 5 5 5 6 8 8 8 7 8 8 8 8 7 7 8 8 7 8 8 8 10 9 9 9 8
7 8 7 6 6 7 7 6 6 5 4 5 5 6 6 6 5 6 6 6 5 4 4 4 5 5 4 4 5 4 4 4 4 4 5 5 4 4 3 4 4 4 4 4 5 4 5 5 5 5 5 5 5 5 5 5 5 5 5 5 5 5 5 6 7 8 8 8 8 8 9 8 8 9 8 8 8 9 8 8 9 8 9 9 8
8 7 7 9 8 7 6 6 5 6 6 6 6 6 6 5 6 5 5 4 4 4 4 4 5 4 4 5 5 4 5 5 5 4 5 4 4 4 4 4 3 4 4 4 5 5 4 5 5 6 5 5 5 5 5 6 6 5 5 5 5 5 6 6 7 9 9 9 8 8 8 8 9 9 9 9 8 9 8 9 10 9 8 8 9
11 10 8 5 6 9 8 7 7 6 6 6 6 6 5 5 5 4 4 4 4 5 5 5 5 5 4 5 5 5 5 5 5 5 4 3 4 4 4 5 4 4 4 5 5 5 5 5 6 5 5 6 5 5 5 5 6 6 6 5 5 5 6 5 6 7 7 9 8 8 8 8 9 9 9 9 9 10 8 10 10 10 8 8 8
4 6 8 11 9 7 8 8 7 7 6 5 5 6 6 6 6 5 4 4 4 4 4 4 4 4 5 6 6 5 5 5 4 4 4 4 4 4 4 4 3 4 5 5 6 6 5 5 5 5 6 5 5 5 5 5 5 5 5 5 5 5 6 6 7 6 7 9 9 8 8 8 9 9 9 10 9 9 9 10 10 8 8 8 9
9 10 9 9 11 9 9 8 8 6 7 7 5 5 3 3 3 3 3 5 4 4 4 4 4 5 6 5 5 4 4 4 4 4 4 5 4 4 4 4 4 4 4 5 5 5 6 6 5 6 6 5 5 5 4 5 5 6 5 5 5 6 7 7 7 8 7 7 7 9 9 9 10 13 16 15 14 12 8 9 9 9 9 9 10
13 12 11 10 9 8 9 8 7 8 8 7 6 5 5 5 5 4 4 4 4 5 4 4 5 6 5 4 4 4 4 4 4 5 5 5 4 4 4 4 5 5 5 5 5 5 5 6 6 6 6 4 4 4 7 13 11 7 7 6 6 6 7 7 7 7 8 7 7 6 7 13 15 15 16 17 17 16 16 12 9 9 10 9 9
11 9 9 8 7 7 7 8 9 9 9 8 7 6 5 4 4 4 5 4 4 4 4 4 5 5 4 4 4 5 4 5 5 5 5 5 5 3 4 5 5 5 6 5 4 5 5 5 6 5 6 5 5 5 12 11 10 12 8 6 6 6 6 7 8 8 8 8 7 7 6 9 12 13 12 16 16 16 15 16 18 17 15 10 9
11 10 7 7 8 9 10 10 10 9 8 6 6 5 5 5 5 5 5 3 5 4 4 5 5 5 4 5 5 5 5 5 5 5 5 4 3 4 4 5 5 6 5 4 5 5 6 5 5 5 6 6 5 9 12 12 12 11 10 7 6 6 6 7 7 8 8 8 8 8 7 6 7 9 9 8 12 15 15 15 16 16 16 18 17
10 10 11 11 12 12 12 10 8 8 8 7 6 6 6 6 5 6 3 4 5 5 4 5 5 4 5 5 5 5 5 6 6 5 4 3 4 5 5 5 6 6 5 6 6 6 6 5 5 6 6 6 6 9 11 12 12 11 11 9 5 6 6 7 6 7 7 8 8 8 8 8 7 12 10 9 9 9 12 15 15 16 15 14 13
9 11 12 11 8 7 8 9 9 7 6 6 7 7 7 5 4 3 4 5 4 4 4 5 4 5 5 5 5 5 5 6 6 5 4 5 5 6 6 5 5 5 5 6 6 7 6 6 5 6 6 6 7 9 11 11 11 11 11 9 5 6 7 7 8 7 7 7 8 9 8 8 7 7 7 9 10 10 9 9 8 8 8 11 13
11 9 8 9 9 7 6 6 6 6 6 6 5 3 3 3 3 4 5 4 4 3 4 4 5 5 5 5 5 4 5 5 5 5 5 5 6 6 6 6 5 5 6 6 6 6 6 6 6 5 5 6 6 11 11 12 11 12 11 9 5 6 7 8 8 7 8 8 8 8 9 9 9 8 7 8 9 10 9 7 9 9 9 10 10
11 12 11 10 11 11 10 8 5 6 6 6 7 5 4 4 4 4 3 3 3 3 5 5 5 5 5 5 4 5 5 5 5 5 5 6 6 6 7 6 5 6 5 4 5 5 5 6 6 5 6 6 6 10 11 12 12 12 11 6 5 6 8 8 8 8 7 6 7 8 10 9 10 10 11 14 14 9 8 10 11 9 10 9 9
2 3 4 3 4 6 7 6 6 7 7 6 4 5 4 4 4 4 3 2 1 4 5 4 4 5 5 5 4 4 5 5 5 6 6 6 6 7 7 4 5 6 6 6 6 5 5 6 6 6 6 6 7 9 11 12 12 13 8 5 5 6 7 8 8 8 7 7 7 8 9 9 10 9 11 11 12 14 9 10 10 10 9 9 9
7 7 7 7 6 7 6 8 8 6 5 5 5 5 4 5 5 3 2 1 1 4 5 4 5 5 5 4 4 4 5 6 6 6 6 6 6 5 6 4 5 6 7 6 5 5 5 5 5 7 6 7 7 9 12 11 12 12 10 6 6 7 7 7 7 7 8 8 9 14 12 8 8 9 10 11 12 12 10 10 9 10 9 9 10
7 9 9 8 8 8 7 6 7 7 4 5 5 5 5 4 3 3 2 2 4 5 4 5 5 4 4 4 4 4 5 5 6 7 6 7 7 6 6 5 5 5 6 6 5 5 6 5 6 6 10 11 8 9 12 12 12 12 9 5 7 7 8 7 6 7 6 7 8 9 13 11 9 9 11 10 9 9 9 10 10 10 11 11 10
7 7 8 8 8 9 7 8 7 6 5 6 6 5 4 3 3 3 2 3 4 5 5 4 4 4 4 4 3 4 5 5 6 6 6 6 5 5 6 6 6 4 5 5 6 5 7 7 7 6 6 7 8 8 10 13 12 12 12 7 6 8 8 7 7 7 8 7 7 7 9 11 11 12 12 12 11 10 9 8 9 9 10 12 9
8 8 8 8 6 8 9 7 5 5 5 5 6 5 4 2 2 3 4 5 5 4 4 4 3 4 4 4 4 4 5 6 5 5 6 6 6 6 6 6 6 6 6 6 7 6 6 8 8 8 7 7 6 8 9 12 12 12 12 9 5 7 6 6 6 8 7 8 8 8 7 9 12 12 12 13 13 13 11 9 10 10 10 10 10
7 9 8 8 8 8 8 6 4 5 5 5 5 4 2 2 2 4 6 5 4 4 3 3 4 4 4 4 5 5 4 5 5 5 6 7 6 6 5 6 5 6 7 7 8 7 7 8 8 7 7 8 9 13 10 11 12 12 12 12 7 7 7 8 9 8 8 7 7 8 8 9 12 12 13 13 14 13 12 8 9 12 12 11 9
10 8 6 9 8 7 7 6 4 4 4 5 5 3 2 2 3 4 4 3 3 3 3 3 4 4 5 5 5 6 6 5 5 5 6 7 6 6 6 6 6 6 7 8 8 7 8 8 7 7 6 7 6 7 12 11 12 12 12 12 13 10 12 8 8 10 10 8 8 8 9 14 13 13 12 12 12 11 9 7 11 11 11 11 10
8 8 8 9 8 7 6 5 3 3 3 4 4 3 3 3 2 4 3 2 3 4 3 4 4 4 5 6 5 6 6 5 5 5 6 6 7 6 6 6 6 6 6 8 8 8 8 8 8 9 8 7 6 6 8 12 11 13 13 13 14 14 13 9 9 9 8 8 8 9 9 13 13 13 13 13 12 11 9 10 10 11 12 13 9
9 8 7 8 9 8 6 4 2 2 3 2 3 4 2 0 2 2 2 3 4 3 3 4 5 5 5 5 5 5 5 5 5 4 5 5 7 7 8 7 6 6 7 8 7 7 9 10 10 10 8 9 9 7 6 8 13 13 13 13 13 13 13 13 9 8 9 9 11 13 15 15 15 15 15 14 12 12 13 13 14 14 13 8 10
8 7 6 7 7 6 6 4 1 2 1 1 2 2 1 1 2 3 3 2 1 2 3 3 4 5 5 5 6 6 6 5 5 4 5 5 6 6 7 7 7 7 7 7 9 10 10 10 9 8 8 9 9 9 8 8 8 10 10 10 12 12 16 15 15 12 15 16 15 14 14 15 14 14 12 9 8 8 11 13 13 14 9 9 10
8 6 7 6 6 5 4 3 2 0 1 1 1 3 2 3 3 2 1 1 2 2 3 3 4 5 5 4 5 5 5 5 5 5 5 5 5 5 6 7 6 7 7 8 10 10 11 10 10 10 9 8 7 8 7 8 7 7 6 6 8 9 14 15 11 9 10 9 11 11 10 12 13 15 15 15 14 14 12 11 9 10 10 10 9
4 4 5 6 5 6 3 2 0 1 1 1 1 2 3 3 2 1 2 2 2 2 3 4 5 4 5 5 5 7 7 5 6 6 6 6 5 4 6 7 7 7 8 9 9 10 11 10 9 10 9 9 9 8 7 6 7 7 8 7 7 6 7 6 8 8 8 9 9 11 11 9 9 9 9 9 8 9 9 9 9 9 10 10 11
6 4 4 5 4 3 2 1 2 1 1 1 2 3 3 1 1 2 2 3 2 3 3 4 4 5 6 5 5 5 5 6 6 6 6 6 6 7 7 7 8 6 6 7 8 10 10 9 8 10 10 11 10 10 8 8 11 11 10 8 6 7 7 8 11 13 12 9 8 9 9 9 9 11 10 9 8 8 9 8 9 9 9 9 8
3 3 4 3 3 3 4 3 3 1 1 0 1 2 1 1 1 1 2 2 2 3 4 5 4 5 5 5 5 5 6 6 6 6 7 9 8 8 8 8 9 12 14 13 9 8 8 7 8 8 7 9 10 10 14 16 15 14 13 12 11 12 13 12 14 16 11 9 9 9 9 9 8 8 9 9 10 9 9 9 8 9 9 8 7
3 4 2 4 3 2 2 2 1 0 1 1 1 1 1 1 1 1 2 2 2 3 3 4 5 5 5 5 5 6 5 6 6 6 7 8 10 9 8 13 14 15 15 16 16 16 15 13 8 7 9 13 14 16 17 14 13 13 13 13 13 14 15 15 12 8 6 7 8 8 8 8 7 7 8 9 9 8 9 9 10 9 8 9 9
Wind_Direction
162 159 160 162 164 169 171 176 179 192 196 193 232 266 248 216 190 186 153 138 132 147 161 163 167 174 150 200 196 197 257 207 180 209 233 228 214 217 211 210 202 187 183 142 174 226 257 254 272 300 309 258 233 239 238 235 227 217 205 201 200 210 233 228 229 197 231 276 235 251 255 241 238 232 225 220 216 217 212 213 214 220 223 220 211
124 136 156 150 160 167 161 165 170 190 205 203 230 269 270 229 210 134 79 123 152 143 136 111 1 252 143 198 225 205 201 207 225 195 218 221 197 186 115 168 296 306 304 286 236 203 263 276 235 230 236 271 271 250 239 237 234 222 210 208 203 204 227 207 189 147 213 237 289 324 275 254 232 231 232 230 221 213 211 210 213 217 219 218 208
141 131 144 151 160 165 166 169 170 184 164 185 209 228 239 222 144 179 152 149 155 166 124 182 182 219 150 171 211 211 110 318 327 314 271 264 273 186 188 199 236 276 265 219 229 222 210 208 232 223 217 228 242 243 235 235 231 229 212 216 203 221 223 179 176 185 196 155 174 313 303 336 28 236 237 238 228 219 211 211 211 216 221 214 207
151 151 144 134 148 160 159 164 169 168 194 189 195 188 206 180 188 181 138 138 175 198 222 172 165 96 77 149 70 52 328 227 233 225 257 346 322 296 245 183 189 209 228 237 229 190 188 211 214 236 229 226 239 238 229 227 227 235 233 228 212 221 218 217 187 192 195 134 263 215 282 47 306 312 297 238 210 207 212 217 214 217 219 215 207
155 147 139 136 132 137 144 148 147 164 183 175 176 161 191 179 178 176 144 187 192 186 116 144 114 99 0 342 20 30 274 250 299 308 278 291 312 350 295 201 206 221 219 226 216 178 201 230 222 202 223 226 236 237 226 225 223 226 227 230 213 216 222 193 195 189 199 201 190 155 215 272 240 278 320 281 154 211 225 223 223 221 222 219 217
166 165 160 152 139 135 129 139 140 146 159 172 163 153 144 131 158 159 155 218 302 304 178 70 12 28 192 234 203 237 323 347 349 344 338 346 333 316 304 279 247 257 245 228 229 212 202 216 203 214 214 213 206 218 224 227 235 236 227 219 232 214 220 194 199 199 203 197 215 235 176 227 242 229 357 297 249 215 221 215 224 224 227 225 226
333 94 155 141 142 140 145 143 149 141 149 149 149 138 138 150 162 171 165 183 185 211 185 142 162 205 168 148 152 154 24 291 239 284 306 305 309 313 311 303 246 278 289 261 249 233 224 229 237 221 210 217 222 233 234 230 240 240 225 207 220 215 204 221 222 203 208 229 223 230 241 246 198 256 251 5 308 330 213 233 226 227 226 227 231
196 181 211 173 155 157 155 152 151 146 146 145 141 135 137 142 142 153 165 163 163 175 178 180 159 199 184 162 148 190 204 270 305 311 308 313 321 329 333 329 327 275 285 272 248 252 230 236 246 240 246 238 236 236 244 253 248 251 210 169 188 194 196 222 231 201 205 227 216 227 232 239 235 240 214 241 271 292 290 230 222 218 223 230 231
168 170 190 189 174 159 147 146 151 130 137 142 142 124 128 131 136 142 143 154 161 174 166 180 176 177 152 118 13 332 262 289 318 325 328 339 330 337 342 331 328 323 290 294 290 238 269 255 235 248 258 267 265 257 253 248 247 239 223 216 227 221 215 223 225 221 218 228 202 227 229 232 225 226 223 197 229 246 268 279 278 200 231 241 236
177 181 182 194 186 156 139 130 119 116 119 115 105 112 118 127 110 105 101 122 140 157 151 152 162 124 114 144 287 289 337 342 356 337 338 350 345 338 342 345 341 337 344 326 305 280 286 267 241 237 247 258 266 262 248 253 251 241 228 230 222 229 220 216 219 223 226 229 220 211 198 221 227 232 226 218 229 230 252 258 268 289 295 253 208
176 181 183 176 164 140 128 124 117 94 91 101 101 105 101 90 93 76 52 92 109 122 124 133 149 164 172 192 218 289 329 1 358 337 347 359 2 335 342 335 332 330 329 329 307 303 295 285 277 266 261 259 260 249 254 253 257 252 249 248 234 226 230 230 235 238 234 231 232 221 224 207 207 208 203 200 208 216 231 253 262 249 251 282 251
173 176 169 147 127 116 114 115 116 115 106 102 112 111 106 106 105 91 62 52 45 90 123 140 150 175 174 172 256 302 328 328 302 300 318 331 328 327 327 338 345 334 338 343 334 330 317 293 279 280 271 270 265 262 260 253 290 272 246 251 256 251 251 244 236 247 241 243 239 235 232 226 226 227 211 191 196 214 213 251 260 266 260 229 269
175 180 165 158 156 150 136 126 121 135 145 150 152 135 124 113 118 117 113 51 54 104 106 101 118 143 162 173 217 228 230 228 238 278 286 303 311 328 341 342 334 346 341 340 330 333 336 325 321 291 284 266 270 260 262 240 219 253 283 274 291 291 277 270 252 253 263 242 237 239 252 244 240 235 229 213 212 210 211 246 252 244 254 274 265
181 177 170 164 165 156 149 151 159 156 158 164 163 152 145 124 117 126 135 90 70 85 97 93 85 138 162 167 183 179 151 162 213 227 290 275 279 282 298 300 310 310 318 323 310 317 321 310 302 287 266 264 272 263 259 261 231 238 240 257 273 261 263 266 262 250 251 261 247 234 230 239 245 238 231 228 224 201 220 223 243 239 236 259 257
183 176 172 169 166 155 158 164 164 165 171 169 172 158 148 129 121 114 111 50 68 130 120 105 91 85 111 129 136 139 125 115 199 218 250 307 286 266 282 295 301 311 310 300 313 316 318 327 331 325 316 292 274 275 278 270 228 219 242 219 233 245 264 262 239 235 242 248 256 251 250 245 243 242 235 236 229 225 222 221 214 246 252 237 252
182 170 166 169 159 155 157 165 167 169 175 169 171 160 165 161 155 166 171 180 91 77 93 120 116 96 78 89 65 59 54 45 350 349 341 283 319 313 316 316 303 297 299 302 311 330 333 333 332 338 332 324 314 292 283 273 257 237 237 234 242 238 228 230 231 237 247 244 244 248 251 248 243 239 236 239 239 233 227 227 216 226 246 267 244
180 171 165 164 150 168 171 169 170 169 166 182 188 183 175 157 161 179 223 130 91 163 150 141 132 107 106 90 92 86 73 24 342 330 326 326 328 307 287 293 296 294 307 311 321 331 334 325 330 327 334 331 318 305 284 266 250 249 252 252 246 233 237 247 237 231 244 248 240 249 248 250 247 249 251 253 259 277 320 320 281 241 217 243 253
178 172 166 164 167 174 179 180 176 178 185 190 202 186 177 167 163 177 168 216 179 178 134 139 148 145 90 48 36 212 302 327 326 317 319 336 339 339 335 335 330 321 308 311 326 319 322 329 324 315 315 321 311 302 300 293 273 261 247 252 257 252 239 229 237 243 250 245 243 252 249 259 258 260 256 270 323 250 214 223 240 256 273 247 231
168 171 166 171 178 184 177 187 193 189 187 193 193 162 163 174 168 162 184 200 184 180 173 154 139 125 155 222 229 24 14 272 274 272 296 286 302 305 288 284 301 313 320 326 331 320 319 316 312 304 311 308 307 302 302 299 291 285 267 258 259 257 248 247 249 247 249 247 251 255 257 262 275 292 287 229 253 253 251 227 232 234 222 244 263
177 179 183 184 185 189 183 186 191 193 188 188 163 156 183 184 171 149 103 168 136 150 163 174 159 113 211 240 237 214 236 247 275 253 273 248 266 275 287 302 290 301 299 302 299 299 304 309 307 306 302 303 302 303 303 299 292 272 276 271 266 255 250 252 259 251 249 244 244 250 255 258 242 229 251 236 237 235 229 233 238 235 238 228 235
182 182 185 186 187 191 188 191 197 172 149 140 159 179 186 169 173 166 159 164 165 164 168 191 149 204 206 180 276 326 316 292 308 241 245 260 266 270 265 259 295 294 299 305 299 292 290 285 291 293 294 295 302 299 298 293 290 280 264 260 264 260 255 258 261 267 260 247 247 254 250 246 238 231 236 239 239 238 229 222 215 224 237 232 228
182 184 182 184 186 186 182 186 175 142 154 168 194 163 164 182 181 165 153 163 165 184 190 202 199 196 189 212 244 241 270 285 288 295 275 280 281 271 269 285 274 283 286 285 287 285 284 288 279 278 279 282 284 285 285 291 284 285 284 267 258 257 255 255 255 263 270 266 261 260 265 267 256 253 258 259 250 251 253 248 220 209 218 229 221
183 181 183 183 183 180 177 179 182 181 186 184 178 181 178 177 164 168 160 186 187 190 198 187 188 191 214 225 237 256 231 240 259 273 272 271 272 277 257 260 268 280 278 263 271 279 284 282 280 273 272 272 271 275 280 278 277 267 272 278 271 263 262 262 259 259 263 266 265 265 271 272 270 268 261 258 261 262 261 255 251 237 222 221 218
179 179 178 180 174 161 155 171 178 180 185 193 191 183 176 171 170 161 178 191 199 207 195 186 196 217 225 241 248 244 246 241 246 251 256 262 264 270 265 253 265 262 271 281 278 277 280 278 275 278 270 270 273 270 272 265 264 268 268 268 269 266 261 261 263 264 266 262 264 268 272 274 271 268 265 263 259 258 257 260 259 254 251 248 234
172 177 176 165 163 169 181 181 179 182 193 191 185 181 178 181 169 178 195 197 195 192 186 202 199 215 225 237 259 240 245 247 243 245 250 261 264 267 260 259 265 273 274 283 285 285 278 273 272 272 275 270 267 266 271 273 267 258 257 260 266 265 260 257 258 261 263 265 266 261 268 269 268 265 262 262 261 258 259 260 262 259 258 256 254
178 172 174 182 180 178 179 179 177 182 188 192 190 186 187 182 192 188 190 190 207 194 201 200 206 208 236 249 258 259 246 243 243 243 246 253 265 261 262 267 246 264 277 271 273 277 279 280 275 273 268 269 266 263 259 265 269 268 262 258 257 260 263 261 262 264 262 261 263 261 260 259 262 265 266 263 258 258 259 259 260 260 257 260 260
183 184 180 156 177 188 185 179 183 185 192 193 186 192 195 192 201 203 205 192 200 195 203 202 203 213 239 256 255 251 249 250 246 247 253 261 259 256 254 261 259 265 275 282 280 278 280 274 278 276 273 270 271 270 266 262 262 261 259 264 261 260 262 262 257 255 255 261 259 257 259 258 258 260 264 265 263 261 257 258 258 260 257 257 258
167 170 176 188 187 183 184 184 184 192 196 199 201 194 193 190 198 205 198 203 213 196 200 205 204 229 241 254 252 251 255 253 253 249 255 260 256 254 252 257 267 271 271 271 277 280 283 285 278 276 274 276 275 275 271 263 258 255 255 252 253 257 266 266 264 259 258 263 261 256 253 254 252 257 258 258 254 255 253 255 257 254 255 256 257
187 194 190 184 188 188 184 186 190 184 193 201 199 209 212 217 220 208 179 210 208 189 198 204 213 231 246 249 263 270 267 269 271 272 267 261 254 255 266 273 271 272 266 268 273 275 282 284 282 274 275 272 271 269 263 259 254 260 242 247 256 260 271 271 273 272 264 258 260 261 259 255 252 250 252 253 254 255 258 264 256 248 248 250 256
196 196 195 196 190 182 184 184 187 189 196 195 196 200 200 200 208 199 203 227 176 204 189 200 220 240 254 261 264 271 269 264 265 262 257 254 251 254 256 268 267 265 266 269 269 268 268 276 281 284 281 279 271 263 275 283 292 289 286 284 274 272 270 268 268 271 271 264 256 252 254 256 256 258 264 268 268 263 254 250 262 266 260 258 257
200 196 198 192 184 180 183 189 193 195 198 193 194 196 191 202 206 195 215 219 191 192 201 208 238 250 262 277 277 272 268 273 268 264 258 251 252 251 265 265 268 267 267 270 269 267 269 272 277 280 283 278 276 274 285 287 285 289 289 278 271 272 263 267 269 268 269 270 265 256 252 260 265 270 267 265 266 268 263 261 256 254 256 253 253
197 196 185 180 185 186 193 195 196 198 192 185 188 185 175 203 201 205 220 184 193 195 211 230 244 265 277 280 281 289 294 291 287 273 258 253 257 266 269 270 274 280 275 266 269 270 273 277 278 280 278 279 275 282 284 285 287 285 285 282 277 273 271 270 265 264 264 264 265 265 261 255 259 257 260 261 263 265 264 258 259 261 263 265 263
188 186 191 191 191 194 194 193 194 191 186 193 177 163 191 200 192 219 178 198 205 209 224 245 257 262 275 276 283 296 300 299 291 279 275 274 278 281 279 283 285 284 290 292 291 289 288 284 279 280 279 277 275 280 281 284 288 289 288 289 276 269 266 267 258 259 257 259 261 263 267 263 256 258 259 261 264 266 262 262 265 273 273 273 274
193 195 193 193 189 190 193 194 192 185 179 171 174 178 195 189 189 164 189 217 206 233 232 260 284 280 276 283 285 294 297 292 290 290 294 296 293 284 281 272 278 291 295 294 298 296 296 294 288 285 284 283 274 277 279 285 289 291 291 289 273 272 272 267 264 255 256 258 256 260 263 264 258 254 255 259 262 262 266 268 266 263 266 272 272
191 191 189 185 186 179 172 173 167 159 152 152 180 196 151 138 162 192 216 212 226 268 293 285 283 278 279 277 283 292 292 290 291 289 294 289 283 285 288 285 285 285 290 292 291 294 288 288 289 285 280 282 278 284 286 287 288 290 290 292 277 282 283 277 271 263 257 257 256 256 256 258 262 259 251 252 257 261 262 263 267 266 263 263 264
193 189 185 176 177 179 176 167 146 137 154 167 176 162 149 198 178 198 203 214 236 289 281 280 273 274 279 280 286 298 296 297 298 297 293 286 285 279 286 292 296 291 279 271 272 264 275 285 286 285 285 284 283 287 287 288 288 289 290 289 280 281 286 283 280 271 260 254 255 254 259 261 260 260 259 260 263 267 270 267 266 263 262 259 258
146 158 157 140 132 137 144 133 141 150 148 176 158 150 167 164 174 211 180 225 218 268 267 273 283 281 285 285 288 298 301 301 303 300 295 293 293 296 292 283 289 292 292 284 281 280 282 283 290 292 289 287 290 292 290 288 290 293 295 283 277 283 283 284 280 276 271 264 260 254 255 258 262 261 260 260 263 270 266 267 267 267 266 263 263
124 110 116 125 126 121 132 139 145 146 155 146 140 150 157 174 202 189 178 226 105 252 259 273 278 282 282 296 304 293 300 306 308 303 300 298 294 286 280 283 285 292 294 292 290 288 285 282 283 287 283 286 288 289 287 288 287 289 289 284 283 283 280 279 280 275 274 271 264 261 258 255 256 261 256 254 257 266 267 266 264 265 270 268 264
136 140 137 138 140 138 134 129 130 137 131 117 139 150 157 189 182 146 128 184 244 259 270 267 269 280 292 287 287 300 303 298 300 302 301 300 297 293 290 291 279 271 277 285 292 287 288 282 272 271 283 287 287 289 289 285 282 284 289 284 286 284 285 277 275 278 273 273 271 264 260 257 256 259 259 263 262 266 274 269 266 265 264 263 263
118 122 134 132 129 114 112 122 134 148 138 140 151 156 164 158 161 121 179 246 258 251 250 257 269 282 292 305 302 301 290 288 292 296 299 294 289 293 296 298 295 289 289 292 291 288 287 285 286 278 274 275 279 280 283 284 282 282 285 282 282 288 285 285 283 279 282 276 271 267 261 254 253 256 262 264 264 259 255 265 274 268 265 263 266
121 122 119 113 116 128 132 135 142 135 141 153 153 143 145 155 140 159 234 249 249 255 264 265 289 308 306 293 284 262 287 299 292 286 292 302 306 302 301 301 302 303 300 296 292 289 285 288 290 287 281 276 268 276 277 279 280 281 283 284 273 275 277 276 281 282 279 279 277 273 264 260 254 248 248 252 253 252 248 249 251 254 255 268 286
92 104 105 103 99 97 95 89 105 142 146 142 128 125 153 121 113 218 244 247 259 264 267 299 313 297 288 294 305 314 305 301 305 312 313 307 302 298 287 290 289 291 293 296 296 294 295 291 290 282 277 278 280 284 288 286 286 286 285 284 281 274 275 285 286 283 280 273 268 269 270 263 260 253 248 244 245 249 251 247 251 254 265 276 277
98 87 90 106 102 102 113 129 131 120 111 112 113 122 137 161 201 241 248 249 254 290 331 336 319 316 321 321 319 317 315 315 308 306 301 298 301 303 299 295 291 297 299 301 300 298 297 296 291 286 279 280 278 282 283 284 285 286 285 283 279 276 280 277 276 278 276 273 270 268 269 272 270 265 260 258 258 258 258 247 244 251 259 266 276
82 101 109 100 101 107 109 102 87 76 90 127 128 142 165 176 237 251 274 298 332 358 0 343 333 327 322 317 315 313 305 300 296 301 300 297 301 299 298 301 305 302 303 302 300 301 300 298 298 297 297 293 287 278 278 279 284 286 281 279 279 279 277 269 274 277 275 270 268 267 265 267 269 269 267 263 262 260 255 253 253 256 263 270 270
109 108 106 108 122 125 120 110 90 90 104 129 134 137 138 155 262 289 308 332 340 359 358 337 326 316 313 305 307 301 300 301 297 295 297 299 301 308 310 310 311 304 301 301 297 301 301 301 299 298 297 296 294 285 274 278 281 286 283 278 278 278 280 277 277 270 268 266 262 262 265 269 271 269 266 269 269 260 250 249 248 247 249 252 256
105 105 108 113 109 110 116 118 70 32 19 85 131 126 147 234 312 335 338 1 11 11 349 325 313 311 305 307 308 308 305 294 295 292 282 286 296 306 310 309 308 303 300 300 302 303 303 302 298 293 288 294 292 294 291 291 291 294 293 288 287 287 295 290 287 284 285 284 278 271 268 269 269 267 266 258 245 246 243 240 244 246 239 245 249
130 138 119 108 109 108 114 112 135 301 348 14 138 203 245 294 293 312 295 156 106 1 332 324 319 311 308 312 312 295 298 304 303 299 293 295 291 284 295 300 297 296 298 298 300 302 304 302 302 300 298 294 291 293 296 298 296 296 298 306 312 305 300 297 291 282 280 276 273 269 266 263 259 258 254 254 256 261 266 270 270 264 257 253 248
106 114 112 116 125 137 147 127 167 292 347 340 357 335 281 297 299 227 141 92 44 352 345 322 314 309 310 312 303 309 315 303 304 307 305 303 293 280 293 292 292 292 295 298 297 299 301 303 302 302 304 302 301 298 298 301 305 310 315 311 304 300 296 293 289 284 281 278 278 273 265 261 263 261 251 244 243 249 260 265 259 257 256 253 250
118 124 130 136 141 131 148 156 251 291 336 355 321 300 319 318 210 154 92 43 12 350 338 326 324 329 319 312 309 297 291 300 302 305 291 280 276 299 296 288 279 269 260 272 285 287 291 292 294 299 304 307 302 301 304 315 310 309 303 301 304 304 303 297 290 297 302 297 287 274 267 265 256 258 259 257 255 261 266 259 256 259 256 253 246
78 79 91 127 143 148 167 192 248 278 329 323 298 306 313 268 156 112 69 47 359 341 349 340 326 321 314 313 311 305 302 301 302 297 306 306 289 276 267 280 288 286 280 275 261 262 271 288 292 286 284 292 299 299 302 304 303 301 296 289 284 282 281 279 286 293 289 280 268 263 254 246 246 246 252 251 254 254 260 260 255 251 253 257 256
113 106 116 147 158 137 133 219 252 170 159 252 262 250 166 83 118 197 102 96 71 17 341 332 326 326 317 316 312 307 305 303 297 300 309 310 310 305 254 244 257 265 271 275 280 275 273 267 255 276 284 280 283 288 292 296 299 294 287 285 290 292 292 290 288 298 281 245 254 254 255 253 247 245 248 253 251 247 249 252 255 257 254 250 253